Location: Unnamed
(23.5608°S, 46.6833°W)
Time: 12:46:38
(UTC-03:00)

STRAND 1 - Visible Passes

Search period start: 20 March 2023 00:00
Search period end: 30 March 2023 00:00
Orbit: 767 x 780 km, 98.4° (Epoch: 19 March)

Date Brightness Start Highest point End Pass type
(mag) Time Alt. Az. Time Alt. Az. Time Alt. Az.
20 Mar ? 19:34:33 10° WNW 19:36:39 12° W 19:38:46 10° WSW visible
21 Mar ? 18:57:38 10° NNW 19:02:07 31° W 19:06:39 10° SW visible
22 Mar ? 05:39:40 10° ESE 05:42:35 15° E 05:45:27 10° NE visible
23 Mar ? 19:30:01 10° NW 19:32:37 14° W 19:35:14 10° WSW visible
24 Mar ? 18:53:29 10° NNW 18:58:05 34° W 19:02:45 10° SW visible
25 Mar ? 05:36:03 10° ESE 05:38:32 13° E 05:41:00 10° NE visible
26 Mar ? 19:25:35 10° NW 19:28:34 16° W 19:31:35 10° WSW visible
27 Mar ? 18:49:20 10° NNW 18:54:02 38° W 18:58:49 10° SSW visible
28 Mar ? 05:32:33 10° ESE 05:34:29 12° E 05:36:24 10° ENE visible
29 Mar ? 19:21:11 10° NW 19:24:30 17° W 19:27:51 10° SW visible
